Showing default

OV2-1, 1641

Orbit data source: Space-Track

OV2-1, 1641 is a payload satellite owned by USAF SSD (US) in LEO that was launched on Fri, 15 Oct 1965 UTC via a TITAN IIIC launch vehicle from the Air Force Eastern Test Range (AFETR). Payload-class satellites include a variety of spacecraft equipped with specific instruments for various scientific and technological missions. These include communications satellites like Starlink; space stations such as the ISS; scientific satellites like the Hubble; Earth observation satellites from companies like Planet Labs, Umbra, and HawkEye 360; GPS; miniature CubeSats for education and research; and military/defense satellites.

Loading next visibility...
Identifier
1641, 1965-082C
Orbit
LEO
Country
Flag of USUS
Related business
Manufacturer
Northrop
Mission
Non-operational spacecraft
Bus & Motor
OV2, Unknown motor
Mass
170 kg wet, 170 kg dry
Launch date (UTC)
1965-10-15 (60 years ago)
Launch vehicle
TITAN IIIC
Launch site
Air Force Eastern Test Range (AFETR)
Object type
Payload
Rocket body
Debris
Shape & HBR
Unknown
Radar Cross Section
Medium (>0.1 m² and <1 m²)

Expand to show TLE details & history
Last TLE update: 16 hours ago

TLE from 16 hours ago
0 OV2-1
1 01641U 65082C   25308.78201829  .00000349  00000-0  72787-4 0  9999
2 01641  32.2959  91.6931 0018598  12.7979 347.3136 14.54662720184590
Epoch: 2025-11-04T18:46Z
TLE epoch observation values (Epoch: 2025-11-04T18:46:06.380Z)
Latitude
-0.00001°
Longitude
125.9024°
Altitude
696.274 km
Speed
7.517 km/s
True Right ascension
06h 06m 46s
True Declination
0° 00' 00"
Sunlit
Object was in full shadow at epoch
Visualization orbit readout
Latitude
Unknown
Longitude
Unknown
Altitude
Unknown
Speed
Unknown
Apparent Right ascension
Unknown
Apparent Declination
Unknown
Sunlit
N/A
Visualization observer readout
Local Sidereal Time
06:45:58
Azimuth
Unknown
Elevation
Unknown
Doppler factor
Unknown
Orbital elements
Apogee altitude
727.209 km
Perigee altitude
700.829 km
Semi-major axis
7,092.156 km
Eccentricity
0.00186
Inclination
32.2959°
RAAN
91.6931°
Arg. of periapsis
12.7979°
True anomaly
347.26669°
Mean anomaly
347.3136°
Eccentric anomaly
347.29016°
Mean motion
3.63392 °/min
Orbital period
99.07 mins
BSTAR
0.000072787

Documentation

Showing up to 5 results
|